Marshfield, WI

3:11 AM CDT on August 19, 2017 (GMT -0500)
Marshfield Municipal

Weather History for KMFI - April, 2013

Change the Weather History Date:

Wednesday, April 10, 2013

  Actual Average Record
Temperature  
Mean Temperature 32 °F -  
Max Temperature 37 °F 52 °F 82 °F (1977)
Min Temperature 28 °F 29 °F 14 °F (1928)
Degree Days  
Heating Degree Days 32    
Moisture  
Dew Point 26 °F    
Average Humidity 79    
Maximum Humidity 93    
Minimum Humidity 52    
Precipitation  
Precipitation 0.57 in - - ()
Sea Level Pressure  
Sea Level Pressure 30.07 in    
Wind  
Wind Speed 13 mph (ENE)    
Max Wind Speed 21 mph    
Max Gust Speed 28 mph    
Visibility 8 miles    
Events Rain , Snow    
Averages and records for this station are not official NWS values.
T = Trace of Precipitation, MM = Missing Value Source: NWS Daily Summary

Daily Weather History Graph

Daily Weather History Graph

Search for Another Location

Airport or City:

Trip Planner

Search our weather history database for the weather conditions in past years. The results will help you decide how hot, cold, wet, or windy it might be!

Date:

Astronomy

Apr. 10, 2013 Rise Set
Actual Time 6:24 AM CDT 7:39 PM CDT
Civil Twilight 5:54 AM CDT 8:09 PM CDT
Nautical Twilight 5:18 AM CDT 8:46 PM CDT
Astronomical Twilight 4:40 AM CDT 9:24 PM CDT
Moon 6:19 AM CDT (4/10) 8:18 PM CDT (4/10)
Length of Visible Light 14h 15m
Length of Day
13h 14m
New Moon, 0% of the Moon is Illuminated
Apr 10
New Moon
Apr 18
First Quarter
Apr 25
Full
May 2
Last Quarter
May 9
New

Hourly Weather History & Observations

Time (CDT) Temp. Windchill Dew Point Humidity Pressure Visibility Wind Dir Wind Speed Gust Speed Precip Events Conditions
12:09 AM 32.0 °F 24.2 °F 24.8 °F 75% 30.08 in 7.0 mi East 9.2 mph - 0.03 in Rain Light Freezing Rain
12:54 AM 32.0 °F 22.1 °F 26.1 °F 79% 30.14 in 4.0 mi ENE 13.8 mph - 0.17 in Rain Light Freezing Rain
1:18 AM 30.2 °F 20.2 °F 28.4 °F 93% 30.10 in 6.0 mi NE 12.7 mph - 0.10 in Snow Light Snow
1:54 AM 30.0 °F 18.7 °F 27.0 °F 88% 30.12 in 7.0 mi NE 16.1 mph - 0.16 in Rain Light Freezing Rain
2:08 AM 28.4 °F 16.2 °F 26.6 °F 93% 30.07 in 5.0 mi NE 17.3 mph 26.5 mph 0.01 in Rain Light Freezing Rain
2:35 AM 28.4 °F 17.5 °F 26.6 °F 93% 30.07 in 5.0 mi NE 13.8 mph 24.2 mph 0.07 in Rain Light Freezing Rain
2:50 AM 28.4 °F 18.0 °F 26.6 °F 93% 30.08 in 6.0 mi NE 12.7 mph 24.2 mph 0.08 in Rain Light Freezing Rain
2:54 AM 28.9 °F 17.7 °F 26.1 °F 89% 30.13 in 5.0 mi NE 15.0 mph 21.9 mph 0.09 in Rain Light Freezing Rain
3:11 AM 28.4 °F 19.1 °F 26.6 °F 93% 30.11 in 6.0 mi NE 10.4 mph - 0.01 in   Overcast
3:26 AM 28.4 °F 20.4 °F 26.6 °F 93% 30.10 in 1.8 mi NNE 8.1 mph 18.4 mph 0.03 in Snow Light Snow
3:33 AM 28.4 °F 18.5 °F 26.6 °F 93% 30.10 in 1.0 mi NNE 11.5 mph - 0.06 in Snow Light Snow
3:37 AM 28.4 °F 19.7 °F 26.6 °F 93% 30.10 in 1.2 mi NNE 9.2 mph - 0.07 in Snow Light Snow
3:52 AM 28.4 °F 18.5 °F 26.6 °F 93% 30.08 in 2.0 mi NE 11.5 mph 18.4 mph 0.12 in Snow Light Snow
3:54 AM 28.0 °F 18.1 °F 26.1 °F 92% 30.13 in 2.0 mi NE 11.5 mph 18.4 mph 0.12 in Snow Light Snow
4:05 AM 28.4 °F 17.0 °F 26.6 °F 93% 30.05 in 3.0 mi ENE 15.0 mph 21.9 mph 0.03 in Snow Light Snow
4:34 AM 28.4 °F 18.5 °F 26.6 °F 93% 30.02 in 10.0 mi ENE 11.5 mph 24.2 mph 0.03 in   Overcast
4:54 AM 28.0 °F 15.3 °F 26.1 °F 92% 30.03 in 10.0 mi ENE 18.4 mph 24.2 mph 0.03 in   Overcast
5:54 AM 28.9 °F 19.8 °F 25.0 °F 85% 30.13 in 10.0 mi NE 10.4 mph - N/A   Overcast
6:43 AM 28.4 °F 19.1 °F 26.6 °F 93% 30.07 in 10.0 mi NE 10.4 mph - N/A   Overcast
6:54 AM 28.9 °F 18.6 °F 25.0 °F 85% 30.12 in 10.0 mi NE 12.7 mph - N/A   Overcast
7:54 AM 28.9 °F 16.9 °F 25.0 °F 85% 30.03 in 10.0 mi NE 17.3 mph - N/A   Mostly Cloudy
8:42 AM 30.2 °F 19.3 °F 24.8 °F 80% 30.00 in 10.0 mi NE 15.0 mph 25.3 mph N/A   Mostly Cloudy
8:54 AM 30.0 °F 20.0 °F 25.0 °F 82% 30.06 in 10.0 mi ENE 12.7 mph 21.9 mph N/A   Overcast
9:54 AM 32.0 °F 23.6 °F 26.1 °F 79% 30.11 in 10.0 mi NE 10.4 mph - N/A   Overcast
10:54 AM 33.1 °F 23.0 °F 26.1 °F 75% 30.09 in 10.0 mi ENE 15.0 mph - N/A   Overcast
11:10 AM 33.8 °F 22.8 °F 26.6 °F 75% 30.04 in 10.0 mi ENE 18.4 mph 21.9 mph N/A   Overcast
1:18 PM 35.6 °F 27.1 °F 28.4 °F 75% 30.04 in 10.0 mi NE 12.7 mph - N/A   Overcast
1:54 PM 37.0 °F 28.5 °F 28.0 °F 70% 30.09 in 10.0 mi NE 13.8 mph - N/A   Overcast
2:20 PM 37.4 °F 28.5 °F 28.4 °F 70% 30.05 in 10.0 mi East 15.0 mph - N/A   Overcast
2:54 PM 37.0 °F 28.5 °F 27.0 °F 67% 30.07 in 10.0 mi East 13.8 mph - N/A   Overcast
3:54 PM 37.9 °F 30.9 °F 27.0 °F 65% 30.09 in 10.0 mi East 10.4 mph - N/A   Overcast
4:54 PM 37.0 °F 29.3 °F 25.0 °F 62% 30.06 in 10.0 mi ENE 11.5 mph - N/A   Overcast
5:54 PM 37.0 °F 29.8 °F 25.0 °F 62% 30.06 in 10.0 mi ENE 10.4 mph - N/A   Overcast
6:54 PM 37.0 °F 31.0 °F 25.0 °F 62% 30.04 in 10.0 mi ENE 8.1 mph - 0.00 in   Overcast
7:54 PM 36.0 °F 29.0 °F 24.1 °F 62% 30.00 in 10.0 mi ENE 9.2 mph - 0.00 in   Overcast
8:54 PM 37.0 °F 29.3 °F 21.9 °F 54% 30.02 in 10.0 mi East 11.5 mph - N/A   Overcast
9:54 PM 36.0 °F 27.5 °F 19.9 °F 52% 30.03 in 10.0 mi East 12.7 mph - 0.00 in   Overcast
10:54 PM 36.0 °F 27.5 °F 19.9 °F 52% 30.01 in 10.0 mi East 12.7 mph - N/A   Overcast
11:54 PM 35.1 °F 23.8 °F 19.0 °F 52% 29.97 in 10.0 mi East 20.7 mph 27.6 mph N/A   Overcast